Time,TemperatureF,DewpointF,PressureIn,WindDirection,WindDirectionDegrees,WindSpeedMPH,WindSpeedGustMPH,Humidity,HourlyPrecipIn,Conditions,Clouds,dailyrainin,SoftwareType,DateUTC
2013-02-21 00:20:00,23.3,14.0,30.15,ENE,62,7.0,17.0,67,0.00,OVC,,0.00,WeatherDisplay:10.37,2013-02-21 06:20:00,
2013-02-21 00:25:00,23.3,14.0,30.14,NE,51,8.0,14.0,67,0.00,CLR,,0.00,WeatherDisplay:10.37,2013-02-21 06:25:00,
2013-02-21 00:30:00,23.3,13.6,30.13,NE,42,9.0,21.0,66,0.00,CLR,,0.00,WeatherDisplay:10.37,2013-02-21 06:30:00,
2013-02-21 00:35:00,23.2,13.5,30.13,NE,43,8.0,16.0,66,0.00,CLR,,0.00,WeatherDisplay:10.37,2013-02-21 06:35:00,
2013-02-21 00:40:00,23.1,13.4,30.15,NE,49,8.0,15.0,66,0.00,CLR,,0.00,WeatherDisplay:10.37,2013-02-21 06:40:00,
2013-02-21 00:45:00,23.1,13.8,30.14,NE,56,6.0,12.0,67,0.00,CLR,,0.00,WeatherDisplay:10.37,2013-02-21 06:45:00,
2013-02-21 00:50:00,23.1,13.4,30.15,NE,55,7.0,13.0,66,0.00,CLR,,0.00,WeatherDisplay:10.37,2013-02-21 06:50:00,
2013-02-21 01:00:00,23.3,13.9,30.16,ENE,57,6.0,12.0,67,0.00,CLR,,0.00,WeatherDisplay:10.37,2013-02-21 07:00:00,
2013-02-21 01:05:00,23.3,13.6,30.16,NE,56,8.0,18.0,66,0.00,OVC,,0.00,WeatherDisplay:10.37,2013-02-21 07:05:00,
2013-02-21 01:10:00,23.3,14.0,30.15,ENE,64,5.0,12.0,67,0.00,OVC,,0.00,WeatherDisplay:10.37,2013-02-21 07:10:00,
2013-02-21 01:15:00,23.3,14.0,30.14,ENE,60,6.0,12.0,67,0.00,OVC,,0.00,WeatherDisplay:10.37,2013-02-21 07:15:00,
2013-02-21 01:20:00,23.3,14.0,30.14,NE,54,7.0,16.0,67,0.00,OVC,,0.00,WeatherDisplay:10.37,2013-02-21 07:20:00,
2013-02-21 01:25:00,23.3,14.0,30.14,NE,51,8.0,16.0,67,0.00,OVC,,0.00,WeatherDisplay:10.37,2013-02-21 07:25:00,
2013-02-21 01:30:00,23.3,14.0,30.13,NE,54,6.0,14.0,67,0.00,OVC,,0.00,WeatherDisplay:10.37,2013-02-21 07:30:00,
2013-02-21 01:35:00,23.3,14.0,30.12,NE,55,6.0,17.0,67,0.00,OVC,,0.00,WeatherDisplay:10.37,2013-02-21 07:35:00,
2013-02-21 01:40:00,23.1,13.8,30.12,NE,52,8.0,15.0,67,0.00,OVC,,0.00,WeatherDisplay:10.37,2013-02-21 07:40:00,
2013-02-21 01:50:00,23.0,13.7,30.13,NE,50,7.0,14.0,67,0.00,OVC,,0.00,WeatherDisplay:10.37,2013-02-21 07:50:00,
2013-02-21 01:55:00,23.0,13.3,30.11,NE,48,8.0,14.0,66,0.00,OVC,,0.00,WeatherDisplay:10.37,2013-02-21 07:55:00,
2013-02-21 02:05:00,22.9,13.5,30.10,NE,49,7.0,15.0,67,0.00,OVC,,0.00,WeatherDisplay:10.37,2013-02-21 08:05:00,
2013-02-21 02:10:00,22.7,13.4,30.11,ENE,57,5.0,12.0,67,0.00,OVC,,0.00,WeatherDisplay:10.37,2013-02-21 08:10:00,
2013-02-21 02:15:00,22.7,13.4,30.08,NE,51,9.0,16.0,67,0.00,OVC,,0.00,WeatherDisplay:10.37,2013-02-21 08:15:00,
2013-02-21 02:20:00,22.6,13.0,30.08,NE,45,9.0,20.0,66,0.00,OVC,,0.00,WeatherDisplay:10.37,2013-02-21 08:20:00,
2013-02-21 02:25:00,22.4,13.1,30.08,NE,46,9.0,18.0,67,0.00,OVC,,0.00,WeatherDisplay:10.37,2013-02-21 08:25:00,
2013-02-21 02:35:00,22.2,13.2,30.08,NE,45,7.0,12.0,68,0.00,OVC,,0.00,WeatherDisplay:10.37,2013-02-21 08:35:00,
2013-02-21 02:40:00,22.1,13.2,30.08,NE,52,7.0,12.0,68,0.00,OVC,,0.00,WeatherDisplay:10.37,2013-02-21 08:40:00,
2013-02-21 02:45:00,22.3,13.3,30.08,NE,46,10.0,16.0,68,0.00,OVC,,0.00,WeatherDisplay:10.37,2013-02-21 08:45:00,
2013-02-21 02:50:00,22.2,13.3,30.09,NE,44,5.0,16.0,68,0.00,OVC,,0.00,WeatherDisplay:10.37,2013-02-21 08:50:00,
2013-02-21 02:55:00,22.3,13.3,30.10,NE,48,6.0,12.0,68,0.00,OVC,,0.00,WeatherDisplay:10.37,2013-02-21 08:55:00,
2013-02-21 03:00:00,22.2,13.3,30.10,NE,49,8.0,15.0,68,0.00,OVC,,0.00,WeatherDisplay:10.37,2013-02-21 09:00:00,
2013-02-21 03:05:00,22.2,13.3,30.10,NE,48,6.0,13.0,68,0.00,OVC,,0.00,WeatherDisplay:10.37,2013-02-21 09:05:00,
2013-02-21 03:10:00,22.2,13.2,30.09,NE,56,7.0,13.0,68,0.00,OVC,,0.00,WeatherDisplay:10.37,2013-02-21 09:10:00,
2013-02-21 03:15:00,22.2,13.3,30.08,ENE,57,7.0,16.0,68,0.00,OVC,,0.00,WeatherDisplay:10.37,2013-02-21 09:15:00,
2013-02-21 03:20:00,22.1,13.1,30.08,NE,48,9.0,13.0,68,0.00,OVC,,0.00,WeatherDisplay:10.37,2013-02-21 09:20:00,
2013-02-21 03:25:00,22.1,13.1,30.08,NE,46,6.0,16.0,68,0.00,OVC,,0.00,WeatherDisplay:10.37,2013-02-21 09:25:00,
2013-02-21 03:30:00,22.1,13.1,30.07,NE,44,7.0,15.0,68,0.00,OVC,,0.00,WeatherDisplay:10.37,2013-02-21 09:30:00,
2013-02-21 03:40:00,22.1,13.1,30.07,NE,51,7.0,12.0,68,0.00,OVC,,0.00,WeatherDisplay:10.37,2013-02-21 09:40:00,
2013-02-21 03:45:00,22.1,13.1,30.08,ENE,64,3.0,9.0,68,0.00,OVC,,0.00,WeatherDisplay:10.37,2013-02-21 09:45:00,
2013-02-21 03:50:00,22.1,13.1,30.07,ENE,59,8.0,15.0,68,0.00,OVC,,0.00,WeatherDisplay:10.37,2013-02-21 09:50:00,
2013-02-21 03:55:00,22.1,13.1,30.06,NE,52,7.0,18.0,68,0.00,OVC,,0.00,WeatherDisplay:10.37,2013-02-21 09:55:00,
2013-02-21 04:00:00,22.1,13.1,30.05,NE,50,6.0,16.0,68,0.00,OVC,,0.00,WeatherDisplay:10.37,2013-02-21 10:00:00,
2013-02-21 04:10:00,21.9,13.0,30.02,NE,39,10.0,18.0,68,0.00,OVC,,0.00,WeatherDisplay:10.37,2013-02-21 10:10:00,
2013-02-21 04:15:00,21.9,13.0,30.02,NE,37,8.0,15.0,68,0.00,OVC,,0.00,WeatherDisplay:10.37,2013-02-21 10:15:00,
2013-02-21 04:20:00,22.0,13.0,30.04,NE,43,8.0,16.0,68,0.00,OVC,,0.00,WeatherDisplay:10.37,2013-02-21 10:20:00,
2013-02-21 04:30:00,21.9,13.3,30.05,ENE,67,8.0,17.0,69,0.00,OVC,,0.00,WeatherDisplay:10.37,2013-02-21 10:30:00,
2013-02-21 04:35:00,22.1,13.1,30.05,ENE,57,7.0,15.0,68,0.00,OVC,,0.00,WeatherDisplay:10.37,2013-02-21 10:35:00,
2013-02-21 04:40:00,22.1,13.1,30.05,NE,50,8.0,16.0,68,0.00,OVC,,0.00,WeatherDisplay:10.37,2013-02-21 10:40:00,
2013-02-21 04:45:00,22.1,13.1,30.04,NE,52,8.0,21.0,68,0.00,OVC,,0.00,WeatherDisplay:10.37,2013-02-21 10:45:00,
2013-02-21 04:50:00,22.0,13.4,30.04,NE,52,7.0,17.0,69,0.00,OVC,,0.00,WeatherDisplay:10.37,2013-02-21 10:50:00,
2013-02-21 04:55:00,22.0,13.4,30.02,NE,51,10.0,20.0,69,0.00,OVC,,0.00,WeatherDisplay:10.37,2013-02-21 10:55:00,
2013-02-21 05:05:00,21.9,13.3,30.00,NE,45,8.0,15.0,69,0.00,OVC,,0.00,WeatherDisplay:10.37,2013-02-21 11:05:00,
2013-02-21 05:15:00,21.9,13.3,30.01,NE,52,7.0,18.0,69,0.00,OVC,,0.00,WeatherDisplay:10.37,2013-02-21 11:15:00,
2013-02-21 05:20:00,21.9,13.3,30.00,NE,47,7.0,17.0,69,0.00,OVC,,0.00,WeatherDisplay:10.37,2013-02-21 11:20:00,
2013-02-21 05:30:00,22.1,13.8,30.00,NE,54,6.0,14.0,70,0.00,OVC,,0.00,WeatherDisplay:10.37,2013-02-21 11:30:00,
2013-02-21 05:35:00,22.1,13.5,30.00,NE,56,9.0,20.0,69,0.00,OVC,,0.00,WeatherDisplay:10.37,2013-02-21 11:35:00,
2013-02-21 05:40:00,22.1,13.5,30.01,ENE,57,8.0,16.0,69,0.00,OVC,,0.00,WeatherDisplay:10.37,2013-02-21 11:40:00,
2013-02-21 05:50:00,22.1,13.5,30.02,ENE,58,7.0,16.0,69,0.00,OVC,,0.00,WeatherDisplay:10.37,2013-02-21 11:50:00,
2013-02-21 05:55:00,22.2,13.9,30.02,ENE,63,7.0,14.0,70,0.00,OVC,,0.00,WeatherDisplay:10.37,2013-02-21 11:55:00,
2013-02-21 06:00:00,22.2,13.9,30.01,ENE,64,7.0,15.0,70,0.00,OVC,,0.00,WeatherDisplay:10.37,2013-02-21 12:00:00,
2013-02-21 06:10:00,22.1,14.1,30.00,NE,51,10.0,20.0,71,0.00,-SN,,0.00,WeatherDisplay:10.37,2013-02-21 12:10:00,
2013-02-21 06:15:00,21.9,13.9,30.00,NE,53,7.0,20.0,71,0.00,-SN,,0.00,WeatherDisplay:10.37,2013-02-21 12:15:00,
2013-02-21 06:25:00,21.6,15.2,29.99,NE,50,5.0,20.0,76,0.00,-SN,,0.00,WeatherDisplay:10.37,2013-02-21 12:25:00,
2013-02-21 06:30:00,21.6,15.2,29.98,NE,54,8.0,16.0,76,0.00,-SN,,0.00,WeatherDisplay:10.37,2013-02-21 12:30:00,
2013-02-21 06:40:00,21.5,15.7,29.98,NE,56,7.0,20.0,78,0.00,-SN,,0.00,WeatherDisplay:10.37,2013-02-21 12:40:00,
2013-02-21 06:45:00,21.3,15.5,29.98,NE,51,7.0,12.0,78,0.00,-SN,,0.00,WeatherDisplay:10.37,2013-02-21 12:45:00,
2013-02-21 06:55:00,21.0,15.8,29.98,NE,46,6.0,13.0,80,0.00,-SN,,0.00,WeatherDisplay:10.37,2013-02-21 12:55:00,
2013-02-21 07:05:00,20.9,16.3,29.98,NE,46,6.0,12.0,82,0.00, +SN,,0.00,WeatherDisplay:10.37,2013-02-21 13:05:00,
2013-02-21 07:10:00,20.8,16.4,29.97,NE,46,7.0,17.0,83,0.00, +SN,,0.00,WeatherDisplay:10.37,2013-02-21 13:10:00,
2013-02-21 07:20:00,20.6,16.8,29.97,NE,41,8.0,14.0,85,0.00, +SN,,0.00,WeatherDisplay:10.37,2013-02-21 13:20:00,
2013-02-21 07:25:00,20.6,16.8,29.99,NE,45,7.0,13.0,85,0.00, +SN,,0.00,WeatherDisplay:10.37,2013-02-21 13:25:00,
2013-02-21 07:30:00,20.6,17.1,30.00,NE,48,5.0,9.0,86,0.00, +SN,,0.00,WeatherDisplay:10.37,2013-02-21 13:30:00,
2013-02-21 07:35:00,20.6,17.1,29.99,NE,40,3.0,13.0,86,0.00, +SN,,0.00,WeatherDisplay:10.37,2013-02-21 13:35:00,
2013-02-21 07:40:00,20.6,17.1,29.99,NE,34,6.0,14.0,86,0.00, +SN,,0.00,WeatherDisplay:10.37,2013-02-21 13:40:00,
2013-02-21 07:50:00,20.6,17.3,30.02,NE,52,5.0,10.0,87,0.00, +SN,,0.00,WeatherDisplay:10.37,2013-02-21 13:50:00,
2013-02-21 07:55:00,20.6,17.3,30.02,NE,49,5.0,12.0,87,0.00, +SN,,0.00,WeatherDisplay:10.37,2013-02-21 13:55:00,
2013-02-21 08:05:00,20.6,17.6,30.00,NE,45,5.0,16.0,88,0.00, +SN,,0.00,WeatherDisplay:10.37,2013-02-21 14:05:00,
2013-02-21 08:10:00,20.4,17.4,30.01,NE,45,6.0,12.0,88,0.00, +SN,,0.00,WeatherDisplay:10.37,2013-02-21 14:10:00,
2013-02-21 08:15:00,20.4,17.4,30.00,NE,45,7.0,13.0,88,0.00, +SN,,0.00,WeatherDisplay:10.37,2013-02-21 14:15:00,
2013-02-21 08:25:00,20.4,17.7,29.99,NE,50,9.0,14.0,89,0.00, +SN,,0.00,WeatherDisplay:10.37,2013-02-21 14:25:00,
2013-02-21 08:35:00,20.4,17.7,29.98,NE,45,9.0,17.0,89,0.00, +SN,,0.00,WeatherDisplay:10.37,2013-02-21 14:35:00,
2013-02-21 08:40:00,20.4,17.7,29.99,NE,44,8.0,20.0,89,0.00, +SN,,0.00,WeatherDisplay:10.37,2013-02-21 14:40:00,
2013-02-21 08:50:00,20.4,17.7,29.98,NE,47,10.0,18.0,89,0.16, +SN,,0.31,WeatherDisplay:10.37,2013-02-21 14:50:00,
2013-02-21 08:55:00,20.4,17.9,29.96,NE,44,10.0,21.0,90,0.15, +SN,,0.31,WeatherDisplay:10.37,2013-02-21 14:55:00,
2013-02-21 09:00:00,20.4,17.9,29.95,NE,43,12.0,22.0,90,0.00, +SN,,0.31,WeatherDisplay:10.37,2013-02-21 15:00:00,
2013-02-21 09:05:00,20.4,17.9,29.94,NE,41,7.0,18.0,90,0.17, +SN,,0.48,WeatherDisplay:10.37,2013-02-21 15:05:00,
2013-02-21 09:15:00,20.4,17.9,29.95,NE,48,9.0,16.0,90,0.00, +SN,,0.48,WeatherDisplay:10.37,2013-02-21 15:15:00,
2013-02-21 09:20:00,20.4,17.9,29.94,NE,43,8.0,17.0,90,0.00, +SN,,0.48,WeatherDisplay:10.37,2013-02-21 15:20:00,
2013-02-21 09:30:00,20.4,17.9,29.92,NE,48,9.0,23.0,90,0.00, +SN,,0.48,WeatherDisplay:10.37,2013-02-21 15:30:00,
2013-02-21 09:35:00,20.4,18.2,29.91,NE,50,10.0,20.0,91,0.00, +SN,,0.48,WeatherDisplay:10.37,2013-02-21 15:35:00,
2013-02-21 09:40:00,20.4,18.2,29.90,NE,46,13.0,20.0,91,0.00, +SN,,0.48,WeatherDisplay:10.37,2013-02-21 15:40:00,
2013-02-21 09:45:00,20.4,18.2,29.90,NE,47,8.0,25.0,91,0.00, +SN,,0.48,WeatherDisplay:10.37,2013-02-21 15:45:00,
2013-02-21 09:50:00,20.6,18.6,29.90,NE,52,10.0,22.0,92,0.00, +SN,,0.48,WeatherDisplay:10.37,2013-02-21 15:50:00,
2013-02-21 09:55:00,20.6,18.4,29.89,NE,52,10.0,22.0,91,0.00, +SN,,0.48,WeatherDisplay:10.37,2013-02-21 15:55:00,
2013-02-21 10:00:00,20.6,18.4,29.89,NE,54,10.0,21.0,91,0.00, +SN,,0.48,WeatherDisplay:10.37,2013-02-21 16:00:00,
2013-02-21 10:10:00,20.7,18.8,29.88,NE,51,6.0,20.0,92,0.00, +SN,,0.64,WeatherDisplay:10.37,2013-02-21 16:10:00,
2013-02-21 10:15:00,20.9,18.9,29.86,NE,51,10.0,29.0,92,0.00, +SN,,0.64,WeatherDisplay:10.37,2013-02-21 16:15:00,
2013-02-21 10:25:00,21.0,19.1,29.86,NE,50,6.0,24.0,92,0.00, +SN,,0.64,WeatherDisplay:10.37,2013-02-21 16:25:00,
2013-02-21 10:30:00,21.2,19.2,29.86,NE,50,13.0,20.0,92,0.00, +SN,,0.64,WeatherDisplay:10.37,2013-02-21 16:30:00,
2013-02-21 10:35:00,21.2,19.2,29.87,NE,53,12.0,20.0,92,0.00, +SN,,0.64,WeatherDisplay:10.37,2013-02-21 16:35:00,
2013-02-21 10:45:00,21.3,19.3,29.86,NE,53,12.0,21.0,92,0.00, +SN,,0.64,WeatherDisplay:10.37,2013-02-21 16:45:00,
2013-02-21 10:50:00,21.3,19.3,29.85,NE,47,8.0,24.0,92,0.00, +SN,,0.64,WeatherDisplay:10.37,2013-02-21 16:50:00,
2013-02-21 11:00:00,21.5,19.5,29.86,NE,55,7.0,13.0,92,0.00, +SN,,0.64,WeatherDisplay:10.37,2013-02-21 17:00:00,
2013-02-21 11:05:00,21.6,19.7,29.86,ENE,62,8.0,20.0,92,0.03,RA,,0.67,WeatherDisplay:10.37,2013-02-21 17:05:00,
2013-02-21 11:15:00,21.6,19.7,29.88,ENE,69,7.0,21.0,92,0.00,OVC,,0.67,WeatherDisplay:10.37,2013-02-21 17:15:00,
2013-02-21 11:20:00,21.6,19.7,29.87,ENE,62,9.0,23.0,92,0.00,OVC,,0.67,WeatherDisplay:10.37,2013-02-21 17:20:00,
2013-02-21 11:25:00,21.6,19.7,29.87,ENE,60,7.0,22.0,92,0.00,-SN,,0.67,WeatherDisplay:10.37,2013-02-21 17:25:00,
2013-02-21 11:35:00,21.8,19.8,29.87,ENE,69,6.0,14.0,92,0.00,-SN,,0.67,WeatherDisplay:10.37,2013-02-21 17:35:00,
2013-02-21 11:40:00,21.9,20.0,29.87,ENE,61,10.0,17.0,92,0.00,-SN,,0.67,WeatherDisplay:10.37,2013-02-21 17:40:00,
2013-02-21 11:45:00,22.1,20.4,29.85,ENE,58,5.0,13.0,93,0.00,-SN,,0.67,WeatherDisplay:10.37,2013-02-21 17:45:00,
2013-02-21 11:55:00,22.4,20.7,29.85,ENE,63,6.0,18.0,93,0.00,-SN,,0.67,WeatherDisplay:10.37,2013-02-21 17:55:00,
2013-02-21 12:05:00,22.5,20.8,29.84,ENE,59,6.0,16.0,93,0.02,-SN,,0.69,WeatherDisplay:10.37,2013-02-21 18:05:00,
2013-02-21 12:10:00,22.5,20.8,29.84,ENE,58,12.0,25.0,93,0.00,-SN,,0.69,WeatherDisplay:10.37,2013-02-21 18:10:00,
2013-02-21 12:15:00,22.5,20.6,29.83,NE,55,10.0,20.0,92,0.00,OVC,,0.69,WeatherDisplay:10.37,2013-02-21 18:15:00,
2013-02-21 12:20:00,22.7,21.0,29.83,ENE,60,5.0,20.0,93,0.00,OVC,,0.69,WeatherDisplay:10.37,2013-02-21 18:20:00,
2013-02-21 12:25:00,22.9,21.2,29.82,ENE,64,8.0,20.0,93,0.00,OVC,,0.69,WeatherDisplay:10.37,2013-02-21 18:25:00,
2013-02-21 12:30:00,23.0,21.3,29.82,ENE,65,12.0,20.0,93,0.00,OVC,,0.69,WeatherDisplay:10.37,2013-02-21 18:30:00,
2013-02-21 12:40:00,23.2,21.5,29.81,ENE,63,8.0,22.0,93,0.00,OVC,,0.69,WeatherDisplay:10.37,2013-02-21 18:40:00,
2013-02-21 12:45:00,23.1,21.1,29.81,ENE,64,10.0,22.0,92,0.00,OVC,,0.69,WeatherDisplay:10.37,2013-02-21 18:45:00,
2013-02-21 12:55:00,23.3,21.3,29.81,ENE,67,5.0,17.0,92,0.00,OVC,,0.69,WeatherDisplay:10.37,2013-02-21 18:55:00,
2013-02-21 13:00:00,23.5,21.8,29.80,ENE,71,10.0,17.0,93,0.00,OVC,,0.69,WeatherDisplay:10.37,2013-02-21 19:00:00,
2013-02-21 13:05:00,23.5,21.8,29.80,ENE,73,7.0,17.0,93,0.00,OVC,,0.69,WeatherDisplay:10.37,2013-02-21 19:05:00,
2013-02-21 13:15:00,23.7,22.0,29.78,ENE,68,10.0,20.0,93,0.00,OVC,,0.69,WeatherDisplay:10.37,2013-02-21 19:15:00,
2013-02-21 13:25:00,24.0,22.3,29.78,ENE,72,8.0,16.0,93,0.00,OVC,,0.69,WeatherDisplay:10.37,2013-02-21 19:25:00,
2013-02-21 13:30:00,24.2,22.5,29.78,ENE,66,7.0,21.0,93,0.00,OVC,,0.69,WeatherDisplay:10.37,2013-02-21 19:30:00,
2013-02-21 13:35:00,24.2,22.5,29.78,ENE,71,10.0,20.0,93,0.00,OVC,,0.69,WeatherDisplay:10.37,2013-02-21 19:35:00,
2013-02-21 13:40:00,24.2,22.5,29.78,ENE,76,5.0,22.0,93,0.00,OVC,,0.69,WeatherDisplay:10.37,2013-02-21 19:40:00,
2013-02-21 13:50:00,24.3,22.6,29.77,ENE,73,7.0,18.0,93,0.00,OVC,,0.69,WeatherDisplay:10.37,2013-02-21 19:50:00,
2013-02-21 13:55:00,24.3,22.6,29.77,ENE,72,8.0,17.0,93,0.00,OVC,,0.69,WeatherDisplay:10.37,2013-02-21 19:55:00,
2013-02-21 14:00:00,24.5,22.5,29.76,ENE,70,13.0,22.0,92,0.00,OVC,,0.69,WeatherDisplay:10.37,2013-02-21 20:00:00,
2013-02-21 14:05:00,24.5,22.5,29.77,ENE,72,10.0,24.0,92,0.00,OVC,,0.69,WeatherDisplay:10.37,2013-02-21 20:05:00,
2013-02-21 14:10:00,24.5,22.8,29.76,ENE,72,9.0,18.0,93,0.00,OVC,,0.69,WeatherDisplay:10.37,2013-02-21 20:10:00,
2013-02-21 14:15:00,24.5,22.5,29.76,ENE,77,7.0,15.0,92,0.00,OVC,,0.69,WeatherDisplay:10.37,2013-02-21 20:15:00,
2013-02-21 14:20:00,24.5,22.8,29.76,ENE,77,6.0,20.0,93,0.00,OVC,,0.69,WeatherDisplay:10.37,2013-02-21 20:20:00,
2013-02-21 14:30:00,24.6,22.6,29.75,ENE,68,6.0,15.0,92,0.00,OVC,,0.69,WeatherDisplay:10.37,2013-02-21 20:30:00,
2013-02-21 14:40:00,24.6,22.9,29.76,ENE,72,8.0,21.0,93,0.00,OVC,,0.69,WeatherDisplay:10.37,2013-02-21 20:40:00,
2013-02-21 14:45:00,24.6,22.9,29.76,ENE,72,7.0,16.0,93,0.00,OVC,,0.69,WeatherDisplay:10.37,2013-02-21 20:45:00,
2013-02-21 14:50:00,24.6,22.9,29.76,ENE,65,7.0,15.0,93,0.00,OVC,,0.69,WeatherDisplay:10.37,2013-02-21 20:50:00,
2013-02-21 14:55:00,24.8,23.1,29.77,ENE,69,7.0,20.0,93,0.00,OVC,,0.69,WeatherDisplay:10.37,2013-02-21 20:55:00,
2013-02-21 15:05:00,24.8,23.1,29.76,ENE,73,5.0,15.0,93,0.00,OVC,,0.69,WeatherDisplay:10.37,2013-02-21 21:05:00,
2013-02-21 15:10:00,24.8,23.1,29.75,ENE,77,7.0,16.0,93,0.00,OVC,,0.69,WeatherDisplay:10.37,2013-02-21 21:10:00,
2013-02-21 15:15:00,24.8,23.1,29.75,East,79,7.0,15.0,93,0.00,OVC,,0.69,WeatherDisplay:10.37,2013-02-21 21:15:00,
2013-02-21 15:25:00,24.8,23.1,29.75,ENE,73,5.0,17.0,93,0.00,OVC,,0.69,WeatherDisplay:10.37,2013-02-21 21:25:00,
2013-02-21 15:30:00,24.9,23.2,29.75,ENE,72,6.0,12.0,93,0.00,OVC,,0.69,WeatherDisplay:10.37,2013-02-21 21:30:00,
2013-02-21 15:35:00,24.9,23.4,29.75,ENE,69,8.0,13.0,94,0.00,OVC,,0.69,WeatherDisplay:10.37,2013-02-21 21:35:00,
2013-02-21 15:40:00,24.9,23.2,29.75,East,79,6.0,16.0,93,0.00,OVC,,0.69,WeatherDisplay:10.37,2013-02-21 21:40:00,
2013-02-21 15:45:00,25.0,23.2,29.75,ENE,70,2.0,10.0,93,0.00,OVC,,0.69,WeatherDisplay:10.37,2013-02-21 21:45:00,
2013-02-21 15:50:00,25.1,23.4,29.75,ENE,72,3.0,9.0,93,0.00,OVC,,0.69,WeatherDisplay:10.37,2013-02-21 21:50:00,
2013-02-21 16:00:00,25.2,23.5,29.75,East,89,2.0,12.0,93,0.00,OVC,,0.69,WeatherDisplay:10.37,2013-02-21 22:00:00,
2013-02-21 16:10:00,25.3,23.8,29.75,ENE,68,3.0,12.0,94,0.00,OVC,,0.69,WeatherDisplay:10.37,2013-02-21 22:10:00,
2013-02-21 16:15:00,25.4,23.9,29.75,ENE,61,1.0,12.0,94,0.00,OVC,,0.69,WeatherDisplay:10.37,2013-02-21 22:15:00,
2013-02-21 16:20:00,25.5,24.0,29.74,ENE,64,6.0,12.0,94,0.00,OVC,,0.69,WeatherDisplay:10.37,2013-02-21 22:20:00,
2013-02-21 16:25:00,25.5,24.0,29.74,ENE,68,3.0,10.0,94,0.00,-SN,,0.69,WeatherDisplay:10.37,2013-02-21 22:25:00,
2013-02-21 16:30:00,25.7,24.2,29.74,ENE,74,2.0,12.0,94,0.00,-SN,,0.69,WeatherDisplay:10.37,2013-02-21 22:30:00,
2013-02-21 16:40:00,25.7,24.2,29.74,East,80,3.0,10.0,94,0.00,-SN,,0.69,WeatherDisplay:10.37,2013-02-21 22:40:00,
2013-02-21 16:50:00,25.8,24.3,29.75,ENE,74,1.0,9.0,94,0.00,-SN,,0.69,WeatherDisplay:10.37,2013-02-21 22:50:00,
2013-02-21 16:55:00,25.8,24.3,29.75,ENE,73,2.0,7.0,94,0.00,-SN,,0.69,WeatherDisplay:10.37,2013-02-21 22:55:00,
2013-02-21 17:00:00,26.0,24.5,29.75,ENE,69,2.0,8.0,94,0.00,-SN,,0.69,WeatherDisplay:10.37,2013-02-21 23:00:00,
2013-02-21 17:05:00,26.0,24.5,29.75,ENE,65,1.0,7.0,94,0.00,CLR,,0.69,WeatherDisplay:10.37,2013-02-21 23:05:00,
2013-02-21 17:10:00,26.0,24.5,29.75,East,79,1.0,5.0,94,0.00,CLR,,0.69,WeatherDisplay:10.37,2013-02-21 23:10:00,
2013-02-21 17:15:00,26.0,24.5,29.75,East,85,2.0,6.0,94,0.00,CLR,,0.69,WeatherDisplay:10.37,2013-02-21 23:15:00,
2013-02-21 17:25:00,26.0,24.5,29.76,ENE,67,2.0,7.0,94,0.00,CLR,,0.69,WeatherDisplay:10.37,2013-02-21 23:25:00,
2013-02-21 17:30:00,26.0,24.5,29.75,ENE,74,1.0,4.0,94,0.00,CLR,,0.69,WeatherDisplay:10.37,2013-02-21 23:30:00,
2013-02-21 17:35:00,26.0,24.5,29.75,ENE,63,0.0,5.0,94,0.00,CLR,,0.69,WeatherDisplay:10.37,2013-02-21 23:35:00,
2013-02-21 17:40:00,26.0,24.8,29.75,ENE,59,2.0,5.0,95,0.00,CLR,,0.69,WeatherDisplay:10.37,2013-02-21 23:40:00,
2013-02-21 17:45:00,26.0,24.5,29.75,ENE,71,2.0,5.0,94,0.00,-SN,,0.69,WeatherDisplay:10.37,2013-02-21 23:45:00,
2013-02-21 17:50:00,26.0,24.8,29.75,ENE,62,2.0,7.0,95,0.00,-SN,,0.70,WeatherDisplay:10.37,2013-02-21 23:50:00,
2013-02-21 18:00:00,26.0,24.5,29.76,ENE,70,1.0,4.0,94,0.00,-SN,,0.70,WeatherDisplay:10.37,2013-02-22 00:00:00,
2013-02-21 18:10:00,26.0,24.5,29.76,East,81,1.0,3.0,94,0.00,-SN,,0.72,WeatherDisplay:10.37,2013-02-22 00:10:00,
2013-02-21 18:15:00,26.0,24.5,29.75,ENE,77,0.0,2.0,94,0.00,-SN,,0.72,WeatherDisplay:10.37,2013-02-22 00:15:00,
2013-02-21 18:20:00,26.0,24.8,29.76,East,79,1.0,5.0,95,0.00,-SN,,0.72,WeatherDisplay:10.37,2013-02-22 00:20:00,
2013-02-21 18:30:00,26.0,24.8,29.75,ESE,102,0.0,2.0,95,0.00,OVC,,0.72,WeatherDisplay:10.37,2013-02-22 00:30:00,
2013-02-21 18:40:00,26.0,24.5,29.76,ENE,71,0.0,5.0,94,0.00,OVC,,0.72,WeatherDisplay:10.37,2013-02-22 00:40:00,
2013-02-21 18:50:00,26.0,24.5,29.76,NE,54,0.0,1.0,94,0.00,-SN,,0.72,WeatherDisplay:10.37,2013-02-22 00:50:00,
2013-02-21 19:00:00,26.0,24.8,29.74,ENE,58,1.0,4.0,95,0.00,-SN,,0.73,WeatherDisplay:10.37,2013-02-22 01:00:00,
2013-02-21 19:10:00,26.0,24.5,29.75,NE,49,1.0,4.0,94,0.00,-SN,,0.73,WeatherDisplay:10.37,2013-02-22 01:10:00,
2013-02-21 19:15:00,25.8,24.6,29.75,NE,50,1.0,6.0,95,0.00,CLR,,0.73,WeatherDisplay:10.37,2013-02-22 01:15:00,
2013-02-21 19:20:00,25.8,24.3,29.74,NE,56,1.0,5.0,94,0.00,CLR,,0.73,WeatherDisplay:10.37,2013-02-22 01:20:00,
2013-02-21 19:25:00,25.8,24.3,29.75,ENE,65,1.0,3.0,94,0.00,CLR,,0.73,WeatherDisplay:10.37,2013-02-22 01:25:00,
2013-02-21 19:30:00,25.7,24.2,29.74,ENE,64,1.0,3.0,94,0.00,CLR,,0.73,WeatherDisplay:10.37,2013-02-22 01:30:00,
2013-02-21 19:35:00,25.7,24.5,29.75,ENE,61,1.0,5.0,95,0.00,-SN,,0.73,WeatherDisplay:10.37,2013-02-22 01:35:00,
2013-02-21 19:40:00,25.7,24.2,29.75,ENE,62,0.0,4.0,94,0.00,-SN,,0.73,WeatherDisplay:10.37,2013-02-22 01:40:00,
2013-02-21 19:45:00,25.7,24.2,29.76,ENE,65,0.0,1.0,94,0.00,-SN,,0.73,WeatherDisplay:10.37,2013-02-22 01:45:00,
2013-02-21 19:50:00,25.5,24.0,29.76,NE,54,2.0,4.0,94,0.00,-SN,,0.73,WeatherDisplay:10.37,2013-02-22 01:50:00,
2013-02-21 19:55:00,25.5,24.3,29.76,NNE,32,1.0,4.0,95,0.00,-SN,,0.73,WeatherDisplay:10.37,2013-02-22 01:55:00,
2013-02-21 20:00:00,25.4,24.2,29.76,NNE,25,0.0,3.0,95,0.00,-SN,,0.73,WeatherDisplay:10.37,2013-02-22 02:00:00,
2013-02-21 20:05:00,25.3,24.1,29.76,NNE,26,1.0,4.0,95,0.00,OVC,,0.73,WeatherDisplay:10.37,2013-02-22 02:05:00,
2013-02-21 20:10:00,25.2,24.0,29.76,NE,46,2.0,4.0,95,0.00,OVC,,0.73,WeatherDisplay:10.37,2013-02-22 02:10:00,
2013-02-21 20:15:00,25.2,24.0,29.76,NE,51,0.0,3.0,95,0.00,OVC,,0.73,WeatherDisplay:10.37,2013-02-22 02:15:00,
2013-02-21 20:20:00,25.1,23.9,29.75,NE,47,0.0,4.0,95,0.00,OVC,,0.73,WeatherDisplay:10.37,2013-02-22 02:20:00,
2013-02-21 20:25:00,25.1,23.9,29.76,NE,46,0.0,3.0,95,0.00,OVC,,0.73,WeatherDisplay:10.37,2013-02-22 02:25:00,
2013-02-21 20:35:00,24.9,23.7,29.75,NE,38,1.0,4.0,95,0.00,-SN,,0.73,WeatherDisplay:10.37,2013-02-22 02:35:00,
2013-02-21 20:40:00,24.9,23.7,29.75,NE,42,3.0,6.0,95,0.00,-SN,,0.73,WeatherDisplay:10.37,2013-02-22 02:40:00,
2013-02-21 20:45:00,24.8,23.6,29.75,NE,47,2.0,6.0,95,0.00,-SN,,0.73,WeatherDisplay:10.37,2013-02-22 02:45:00,
2013-02-21 20:50:00,24.6,23.4,29.74,NE,53,1.0,5.0,95,0.00,-SN,,0.73,WeatherDisplay:10.37,2013-02-22 02:50:00,
2013-02-21 20:55:00,24.6,23.3,29.74,ENE,59,1.0,4.0,95,0.00,-SN,,0.73,WeatherDisplay:10.37,2013-02-22 02:55:00,
2013-02-21 21:05:00,24.5,23.3,29.75,NE,52,1.0,4.0,95,0.01,-SN,,0.74,WeatherDisplay:10.37,2013-02-22 03:05:00,
2013-02-21 21:10:00,24.5,23.3,29.75,ENE,64,1.0,2.0,95,0.00,-SN,,0.74,WeatherDisplay:10.37,2013-02-22 03:10:00,
2013-02-21 21:15:00,24.5,23.3,29.75,ENE,64,0.0,3.0,95,0.00,-SN,,0.74,WeatherDisplay:10.37,2013-02-22 03:15:00,
2013-02-21 21:25:00,24.5,23.3,29.74,NE,37,0.0,3.0,95,0.00,-SN,,0.74,WeatherDisplay:10.37,2013-02-22 03:25:00,
2013-02-21 21:30:00,24.5,23.3,29.75,NE,36,0.0,3.0,95,0.00,-SN,,0.74,WeatherDisplay:10.37,2013-02-22 03:30:00,
2013-02-21 21:35:00,24.5,23.3,29.74,NE,36,1.0,3.0,95,0.00,-SN,,0.74,WeatherDisplay:10.37,2013-02-22 03:35:00,
2013-02-21 21:45:00,24.5,23.3,29.74,NE,36,0.0,2.0,95,0.00,-SN,,0.74,WeatherDisplay:10.37,2013-02-22 03:45:00,
2013-02-21 21:50:00,24.5,23.3,29.74,NE,35,1.0,4.0,95,0.00,-SN,,0.74,WeatherDisplay:10.37,2013-02-22 03:50:00,
2013-02-21 21:55:00,24.5,23.3,29.74,NE,34,1.0,4.0,95,0.00,-SN,,0.74,WeatherDisplay:10.37,2013-02-22 03:55:00,
2013-02-21 22:05:00,24.3,23.1,29.75,NNE,33,0.0,3.0,95,0.00,-SN,,0.74,WeatherDisplay:10.37,2013-02-22 04:05:00,
2013-02-21 22:15:00,24.3,23.1,29.75,NNE,33,0.0,2.0,95,0.00,-SN,,0.74,WeatherDisplay:10.37,2013-02-22 04:15:00,
2013-02-21 22:35:00,24.2,23.0,29.75,NNE,33,0.0,2.0,95,0.00,RA,,0.67,WeatherDisplay:10.37,2013-02-22 04:35:00,
2013-02-21 22:40:00,24.2,23.0,29.75,NNE,33,0.0,3.0,95,0.00,RA,,0.67,WeatherDisplay:10.37,2013-02-22 04:40:00,
2013-02-21 22:45:00,24.2,23.0,29.75,NNE,33,0.0,1.0,95,0.00,OVC,,0.67,WeatherDisplay:10.37,2013-02-22 04:45:00,
2013-02-21 22:50:00,24.2,23.0,29.75,NNE,33,0.0,0.0,95,0.00,OVC,,0.67,WeatherDisplay:10.37,2013-02-22 04:50:00,
2013-02-21 22:55:00,24.2,23.0,29.75,NNE,33,0.0,2.0,95,0.00,OVC,,0.67,WeatherDisplay:10.37,2013-02-22 04:55:00,
2013-02-21 23:00:00,24.2,23.0,29.75,NNE,33,0.0,0.0,95,0.00,OVC,,0.67,WeatherDisplay:10.37,2013-02-22 05:00:00,
2013-02-21 23:05:00,24.2,23.0,29.75,NNE,33,0.0,0.0,95,0.00,OVC,,0.67,WeatherDisplay:10.37,2013-02-22 05:05:00,
2013-02-21 23:10:00,24.2,23.0,29.75,NNE,33,0.0,0.0,95,0.00,OVC,,0.67,WeatherDisplay:10.37,2013-02-22 05:10:00,
2013-02-21 23:15:00,24.2,23.0,29.75,NNE,33,2.0,4.0,95,0.00,OVC,,0.67,WeatherDisplay:10.37,2013-02-22 05:15:00,
2013-02-21 23:20:00,24.0,22.8,29.75,NNE,33,0.0,2.0,95,0.00,OVC,,0.67,WeatherDisplay:10.37,2013-02-22 05:20:00,
2013-02-21 23:25:00,24.2,23.0,29.75,NNE,33,1.0,3.0,95,0.00,OVC,,0.67,WeatherDisplay:10.37,2013-02-22 05:25:00,
2013-02-21 23:30:00,24.2,23.0,29.76,NNE,32,0.0,3.0,95,0.00,OVC,,0.67,WeatherDisplay:10.37,2013-02-22 05:30:00,
2013-02-21 23:35:00,24.2,23.0,29.76,NNE,27,0.0,1.0,95,0.00,OVC,,0.67,WeatherDisplay:10.37,2013-02-22 05:35:00,
2013-02-21 23:40:00,24.2,23.0,29.76,North,5,0.0,1.0,95,0.00,OVC,,0.67,WeatherDisplay:10.37,2013-02-22 05:40:00,
2013-02-21 23:45:00,24.2,23.0,29.76,North,5,0.0,1.0,95,0.00,OVC,,0.67,WeatherDisplay:10.37,2013-02-22 05:45:00,
2013-02-21 23:50:00,24.2,23.0,29.76,North,5,0.0,0.0,95,0.00,OVC,,0.67,WeatherDisplay:10.37,2013-02-22 05:50:00,
2013-02-21 23:55:00,24.2,23.0,29.76,North,5,0.0,0.0,95,0.00,OVC,,0.67,WeatherDisplay:10.37,2013-02-22 05:55:00,